Weather History for KFLG - July, 2014

Change the Weather History Date:

Friday, July 25, 2014

  Actual Average Record
Temperature  
Mean Temperature 68 °F 66 °F  
Max Temperature 87 °F 81 °F 92 °F (1931)
Min Temperature 49 °F 52 °F 41 °F (1913)
Degree Days  
Heating Degree Days 0 1  
Month to date heating degree days 1 30  
Since 1 July heating degree days 1 30  
Cooling Degree Days 3 2  
Month to date cooling degree days 66 50  
Year to date cooling degree days 80 67  
Growing Degree Days 17 (Base 50)    
Moisture  
Dew Point 45 °F    
Average Humidity 52    
Maximum Humidity 89    
Minimum Humidity 14    
Precipitation  
Precipitation 0.00 in 0.11 in 1.35 in (2003)
Month to date precipitation 2.91 1.92  
Year to date precipitation 6.12 10.39  
Snow  
Snow 0.00 in 0.00 in 0.00 in (2002)
Month to date snowfall 0.0 0.0  
Since 1 July snowfall 0.0 0.0  
Snow Depth 0.00 in    
Sea Level Pressure  
Sea Level Pressure 30.05 in    
Wind  
Wind Speed 6 mph (SW)    
Max Wind Speed 22 mph    
Max Gust Speed 26 mph    
Visibility 9 miles    
Events      
T = Trace of Precipitation, MM = Missing Value Source: NWS Daily Summary

Daily Weather History Graph

Daily Weather History Graph

Search for Another Location

Airport or City:

Trip Planner

Search our weather history database for the weather conditions in past years. The results will help you decide how hot, cold, wet, or windy it might be!

Date:

Astronomy

Jul. 25, 2014 Rise Set
Actual Time 5:30 AM MST 7:35 PM MST
Civil Twilight 5:02 AM MST 8:03 PM MST
Nautical Twilight 4:27 AM MST 8:38 PM MST
Astronomical Twilight 3:50 AM MST 9:15 PM MST
Moon 4:31 AM MST (7/25) 6:36 PM MST (7/25)
Length of Visible Light 15h 01m
Length of Day
14h 04m
Waning Crescent, 1% of the Moon is Illuminated
Jul 25
Waning Crescent
Jul 26
New
Aug 3
First Quarter
Aug 10
Full
Aug 17
Last Quarter

Hourly Weather History & Observations

Time (MST) Temp. Dew Point Humidity Pressure Visibility Wind Dir Wind Speed Gust Speed Precip Events Conditions
12:57 AM 53.1 °F 48.9 °F 86% 30.02 in 10.0 mi Calm Calm - N/A   Clear
1:57 AM 52.0 °F 48.9 °F 89% 30.02 in 10.0 mi Calm Calm - N/A   Clear
2:57 AM 51.1 °F 48.0 °F 89% 30.02 in 10.0 mi Calm Calm - N/A   Clear
3:57 AM 50.0 °F 46.9 °F 89% 30.04 in 10.0 mi Calm Calm - N/A   Clear
4:57 AM 50.0 °F 46.9 °F 89% 30.08 in 10.0 mi Calm Calm - N/A   Clear
5:57 AM 50.0 °F 46.0 °F 86% 30.10 in 10.0 mi Calm Calm - N/A   Clear
6:11 AM 51.1 °F 46.9 °F 86% 30.35 in 10.0 mi Calm Calm - N/A   Partly Cloudy
6:57 AM 55.9 °F 51.1 °F 84% 30.09 in 10.0 mi Calm Calm - N/A   Clear
7:57 AM 68.0 °F 51.1 °F 55% 30.06 in 9.0 mi SW 5.8 mph - N/A   Clear
8:57 AM 73.0 °F 48.9 °F 42% 30.05 in 10.0 mi Calm Calm - N/A   Clear
9:57 AM 79.0 °F 48.0 °F 34% 30.04 in 10.0 mi North - - N/A   Clear
10:57 AM 82.9 °F 46.0 °F 27% 30.02 in 10.0 mi SW 6.9 mph 25.3 mph N/A   Mostly Cloudy
11:57 AM 84.0 °F 43.0 °F 24% 30.01 in 10.0 mi WSW 12.7 mph 18.4 mph N/A   Partly Cloudy
12:57 PM 84.0 °F 30.0 °F 14% 30.01 in 10.0 mi Variable 4.6 mph 18.4 mph N/A   Clear
1:57 PM 84.9 °F 32.0 °F 15% 29.99 in 10.0 mi South 12.7 mph 20.7 mph N/A   Clear
2:57 PM 84.0 °F 32.0 °F 15% 29.97 in 10.0 mi SW 12.7 mph 19.6 mph N/A   Partly Cloudy
3:57 PM 82.9 °F 43.0 °F 24% 29.96 in 10.0 mi WSW 9.2 mph 19.6 mph N/A   Mostly Cloudy
4:57 PM 82.9 °F 39.0 °F 21% 29.96 in 10.0 mi SW 12.7 mph - N/A   Clear
5:57 PM 77.0 °F 46.0 °F 33% 29.99 in 9.0 mi NW 8.1 mph 24.2 mph N/A   Clear
6:37 PM 75.0 °F 46.0 °F 36% 30.30 in 2.5 mi Variable 4.6 mph - N/A   Haze
6:46 PM 75.0 °F 46.0 °F 36% 30.30 in 4.0 mi Variable 5.8 mph - N/A   Haze
6:57 PM 75.0 °F 45.0 °F 34% 30.00 in 8.0 mi West 6.9 mph - N/A   Clear
7:57 PM 73.0 °F 46.9 °F 39% 30.00 in 10.0 mi SW 18.4 mph - N/A   Mostly Cloudy
8:57 PM 70.0 °F 48.0 °F 46% 29.98 in 10.0 mi Calm Calm - N/A   Mostly Cloudy
9:57 PM 70.0 °F 48.0 °F 46% 29.99 in 10.0 mi SSW 12.7 mph - N/A   Clear
10:57 PM 66.9 °F 48.0 °F 51% 29.99 in 10.0 mi Calm Calm - N/A   Mostly Cloudy
11:57 PM 64.0 °F 51.1 °F 63% 30.01 in 10.0 mi SW 5.8 mph - N/A   Scattered Clouds